Find Starlink 32003

NORAD ID: 60097 Int'l Des: 2024-117 Owner: SPXS Country: US Constellation: starlink operational
LEOCIRCULAR

Live Position

Loading 3D Globe...

About Starlink 32003

Description loading...

Upcoming Passes

Passes for default location (London). Set your location on the main map for personalized predictions.

Altitude History

Loading altitude history...

Two-Line Element Set

1 60097U 24117G 26104.06014436 -.00003073 00000-0 -91764-4 0 9990
2 60097 53.1595 232.7013 0000743 59.1007 301.0066 15.30171694102305
Epoch: Apr 14, 2026 • Age: 8 hours

Current Status

Altitude 481.1 km
Velocity 7.63 km/s
Sub-Earth Point 51.70°N, 8°W
Launch Date Jun 23, 2024
Age 1.8 years
Type internet

Technical Details

Classification Payload
Mass 730.00 kg
Dry Mass 700.00 kg
Total Mass 730.00 kg
Length 0.30 m
Diameter 4.10 m
Span 29.00 m
Shape Box + pan
Manufacturer SPXS
Bus Type Starlink V2M
Phase Status In Orbit
Owner/State SPXS/US

Most Searched